Regional Weather Roundup
Issued by NWS Sioux Falls, SD

Home | Current Version | Previous Version | Graphics & Text | Print | Product List | Glossary On
Versions: 1 2 3 4 5 6 7 8 9 10 11 12 13 14 15 16 17 18 19 20 21 22 23 24 25 26 27 28 29 30 31 32 33 34 35 36 37 38 39 40 41 42 43 44 45 46 47 48 49 50
000
ASUS43 KFSD 100010
RWRFSD

WEATHER ROUNDUP FOR SE SOUTH DAKOTA/SW MINNESOTA/NW IOWA
NATIONAL WEATHER SERVICE SIOUX FALLS SD
600 PM CST TUE FEB 09 2016

NOTE: "FAIR" INDICATES FEW OR NO CLOUDS BELOW 12,000 FEET WITH NO
SIGNIFICANT WEATHER AND OR OBSTRUCTIONS TO VISIBILITY.


SDZ038>040-050-052>070-100100-
SOUTHEAST SOUTH DAKOTA

CITY           SKY/WX    TMP DP  RH WIND       PRES   REMARKS
BROOKINGS      MOCLDY    19  12  74 NW7       30.17F WCI  10
CHAMBERLAIN    CLOUDY    32  18  57 SW3       30.17F
6HR MIN TEMP:  27; 6HR MAX TEMP:  33;

HURON          CLOUDY    28  15  58 CALM      30.19F
6HR MIN TEMP:  24; 6HR MAX TEMP:  32;

MADISON        CLOUDY    23  16  74 NW8       30.18F WCI  14
MITCHELL       PTCLDY    28  17  63 S3        30.22F
6HR MIN TEMP:  25; 6HR MAX TEMP:  30;

SIOUX FALLS    CLOUDY    23  12  62 NW7       30.21F WCI  15
6HR MIN TEMP:  18; 6HR MAX TEMP:  23;

WINNER         CLOUDY    35  19  52 SW5       30.16F
YANKTON        CLEAR     27  10  50 N3        30.23F
$$

MNZ071-072-080-081-089-090-097-098-100100-
SOUTHWEST MINNESOTA

CITY           SKY/WX    TMP DP  RH WIND       PRES   REMARKS
FAIRMONT       CLEAR     14   3  62 NW16G22   30.14R WCI  -2
JACKSON        MOCLDY    18   9  68 NW16      30.15R WCI   3
LUVERNE        CLOUDY    23  14  68 NW10      30.20F WCI  12
MARSHALL       CLOUDY    18  11  74 NW13      30.20S WCI   5
6HR MIN TEMP:  13; 6HR MAX TEMP:  18;

MONTEVIDEO     CLOUDY    16  10  79 N12G17    30.23S WCI   3
PIPESTONE      CLOUDY    21   7  53 N8G18     30.18S WCI  12
REDWOOD FALLS  CLOUDY    16   7  67 NW8G20    30.19S WCI   5
TRACY          CLOUDY    18  12  76 NW15G21   30.19S WCI   4
WINDOM         CLEAR     16   9  73 NW18G24   30.16R WCI  -1
WORTHINGTON    CLOUDY    18   7  62 NW18      30.17S WCI   2
$$

IAZ001>003-012>014-020>022-031-032-NEZ013-014-SDZ071-100100-
NORTHWEST IOWA

CITY           SKY/WX    TMP DP  RH WIND       PRES   REMARKS
CHEROKEE       CLOUDY    20  12  72 NW9       30.21S WCI   9
DENISON        CLOUDY    19  12  73 NW14G20   30.20S WCI   6
ESTHERVILLE    CLEAR     13   6  74 NW16      30.15S WCI  -3
LE MARS        CLOUDY    21  14  73 NW7       30.25S WCI  13
ORANGE CITY    PTCLDY    19  12  73 NW7       30.21S WCI  10
SHELDON        CLOUDY    19  14  79 NW13      30.18F WCI   7
SIOUX CITY     CLOUDY    25  14  63 NW12      30.25S WCI  14
6HR MIN TEMP:  18; 6HR MAX TEMP:  25;

SPENCER        CLOUDY    18   8  65 NW15      30.18R WCI   4
6HR MIN TEMP:  12; 6HR MAX TEMP:  18; 6HR PCP: TRACE;

STORM LAKE     CLOUDY    18  12  79 NW21      30.17S WCI   1
$$

ABBREVIATIONS USED IN REMARKS
   TC - TEMPERATURE IN CELSIUS
  WCI - WIND CHILL INDEX
   HX - HEAT INDEX
  VSB - VISIBILITY




USA.gov is the U.S. government's official web portal to all federal, state and local government web resources and services.